Year,Month,Day,Hour,Minute,Value (Times are PST for temperature in C)
2016,04,01,00,00,11.40
2016,04,01,00,01,11.40
2016,04,01,00,02,11.40
2016,04,01,00,03,11.30
2016,04,01,00,04,11.30
2016,04,01,00,05,11.30
2016,04,01,00,06,11.20
2016,04,01,00,07,11.20
2016,04,01,00,08,11.20
2016,04,01,00,09,11.20
2016,04,01,00,10,11.20
2016,04,01,00,11,11.10
2016,04,01,00,12,11.10
2016,04,01,00,13,11.10
2016,04,01,00,14,11.10
2016,04,01,00,15,11.00
2016,04,01,00,16,11.00
2016,04,01,00,17,11.00
2016,04,01,00,18,11.00
2016,04,01,00,19,11.00
2016,04,01,00,20,11.00
2016,04,01,00,21,11.10
2016,04,01,00,22,11.10
2016,04,01,00,23,11.10
2016,04,01,00,24,11.10
2016,04,01,00,25,11.10
2016,04,01,00,26,11.10
2016,04,01,00,27,11.10
2016,04,01,00,28,11.10
2016,04,01,00,29,11.10
2016,04,01,00,30,11.10
2016,04,01,00,31,11.10
2016,04,01,00,32,11.10
2016,04,01,00,33,11.10
2016,04,01,00,34,11.10
2016,04,01,00,35,11.10
2016,04,01,00,36,11.10
2016,04,01,00,37,11.10
2016,04,01,00,38,11.10
2016,04,01,00,39,11.00
2016,04,01,00,40,11.00
2016,04,01,00,41,11.00
2016,04,01,00,42,11.00
2016,04,01,00,43,11.00
2016,04,01,00,44,11.00
2016,04,01,00,45,11.00
2016,04,01,00,46,11.00
2016,04,01,00,47,11.00
2016,04,01,00,48,11.00
2016,04,01,00,49,11.00
2016,04,01,00,50,11.00
2016,04,01,00,51,11.00
2016,04,01,00,52,11.00
2016,04,01,00,53,11.00
2016,04,01,00,54,11.00
2016,04,01,00,55,11.00
2016,04,01,00,56,11.10
2016,04,01,00,57,11.10
2016,04,01,00,58,11.00
2016,04,01,00,59,11.00
2016,04,01,01,00,11.10
2016,04,01,01,01,11.10
2016,04,01,01,02,11.10
2016,04,01,01,03,11.10
2016,04,01,01,04,11.10
2016,04,01,01,05,11.10
2016,04,01,01,06,11.10
2016,04,01,01,07,11.10
2016,04,01,01,08,11.10
2016,04,01,01,09,11.10
2016,04,01,01,10,11.10
2016,04,01,01,11,11.00
2016,04,01,01,12,11.00
2016,04,01,01,13,11.00
2016,04,01,01,14,11.00
2016,04,01,01,15,11.00
2016,04,01,01,16,11.00
2016,04,01,01,17,11.00
2016,04,01,01,18,11.00
2016,04,01,01,19,11.00
2016,04,01,01,20,11.00
2016,04,01,01,21,11.00
2016,04,01,01,22,11.10
2016,04,01,01,23,11.10
2016,04,01,01,24,11.10
2016,04,01,01,25,11.10
2016,04,01,01,26,11.10
2016,04,01,01,27,11.00
2016,04,01,01,28,11.00
2016,04,01,01,29,11.00
2016,04,01,01,30,10.90
2016,04,01,01,31,10.90
2016,04,01,01,32,10.90
2016,04,01,01,33,10.90
2016,04,01,01,34,10.90
2016,04,01,01,35,10.90
2016,04,01,01,36,10.90
2016,04,01,01,37,10.90
2016,04,01,01,38,10.90
2016,04,01,01,39,10.90
2016,04,01,01,40,10.90
2016,04,01,01,41,10.90
2016,04,01,01,42,10.90
2016,04,01,01,43,10.90
2016,04,01,01,44,10.80
2016,04,01,01,45,10.80
2016,04,01,01,46,10.80
2016,04,01,01,47,10.70
2016,04,01,01,48,10.70
2016,04,01,01,49,10.70
2016,04,01,01,50,10.70
2016,04,01,01,51,10.60
2016,04,01,01,52,10.60
2016,04,01,01,53,10.60
2016,04,01,01,54,10.60
2016,04,01,01,55,10.50
2016,04,01,01,56,10.50
2016,04,01,01,57,10.50
2016,04,01,01,58,10.50
2016,04,01,01,59,10.50
2016,04,01,02,00,10.50
2016,04,01,02,01,10.50
2016,04,01,02,02,10.50
2016,04,01,02,03,10.50
2016,04,01,02,04,10.50
2016,04,01,02,05,10.50
2016,04,01,02,06,10.50
2016,04,01,02,07,10.40
2016,04,01,02,08,10.40
2016,04,01,02,09,10.40
2016,04,01,02,10,10.30
2016,04,01,02,11,10.30
2016,04,01,02,12,10.30
2016,04,01,02,13,10.30
2016,04,01,02,14,10.40
2016,04,01,02,15,10.40
2016,04,01,02,16,10.40
2016,04,01,02,17,10.40
2016,04,01,02,18,10.40
2016,04,01,02,19,10.40
2016,04,01,02,20,10.40
2016,04,01,02,21,10.40
2016,04,01,02,22,10.30
2016,04,01,02,23,10.30
2016,04,01,02,24,10.30
2016,04,01,02,25,10.30
2016,04,01,02,26,10.30
2016,04,01,02,27,10.30
2016,04,01,02,28,10.30
2016,04,01,02,29,10.40
2016,04,01,02,30,10.40
2016,04,01,02,31,10.40
2016,04,01,02,32,10.40
2016,04,01,02,33,10.30
2016,04,01,02,34,10.30
2016,04,01,02,35,10.30
2016,04,01,02,36,10.30
2016,04,01,02,37,10.30
2016,04,01,02,38,10.30
2016,04,01,02,39,10.20
2016,04,01,02,40,10.20
2016,04,01,02,41,10.20
2016,04,01,02,42,10.20
2016,04,01,02,43,10.20
2016,04,01,02,44,10.20
2016,04,01,02,45,10.20
2016,04,01,02,46,10.10
2016,04,01,02,47,10.10
2016,04,01,02,48,10.10
2016,04,01,02,49,10.10
2016,04,01,02,50,10.00
2016,04,01,02,51,10.00
2016,04,01,02,52,10.00
2016,04,01,02,53,10.00
2016,04,01,02,54,10.00
2016,04,01,02,55,9.90
2016,04,01,02,56,9.90
2016,04,01,02,57,9.90
2016,04,01,02,58,9.90
2016,04,01,02,59,9.90
2016,04,01,03,00,9.90
2016,04,01,03,01,9.90
2016,04,01,03,02,9.90
2016,04,01,03,03,9.90
2016,04,01,03,04,9.80
2016,04,01,03,05,9.90
2016,04,01,03,06,9.80
2016,04,01,03,07,9.80
2016,04,01,03,08,9.80
2016,04,01,03,09,9.80
2016,04,01,03,10,9.80
2016,04,01,03,11,9.80
2016,04,01,03,12,9.70
2016,04,01,03,13,9.70
2016,04,01,03,14,9.70
2016,04,01,03,15,9.60
2016,04,01,03,16,9.60
2016,04,01,03,17,9.60
2016,04,01,03,18,9.60
2016,04,01,03,19,9.60
2016,04,01,03,20,9.60
2016,04,01,03,21,9.50
2016,04,01,03,22,9.50
2016,04,01,03,23,9.50
2016,04,01,03,24,9.50
2016,04,01,03,25,9.40
2016,04,01,03,26,9.40
2016,04,01,03,27,9.40
2016,04,01,03,28,9.30
2016,04,01,03,29,9.30
2016,04,01,03,30,9.30
2016,04,01,03,31,9.30
2016,04,01,03,32,9.30
2016,04,01,03,33,9.30
2016,04,01,03,34,9.30
2016,04,01,03,35,9.30
2016,04,01,03,36,9.30
2016,04,01,03,37,9.30
2016,04,01,03,38,9.30
2016,04,01,03,39,9.30
2016,04,01,03,40,9.30
2016,04,01,03,41,9.30
2016,04,01,03,42,9.30
2016,04,01,03,43,9.20
2016,04,01,03,44,9.20
2016,04,01,03,45,9.30
2016,04,01,03,46,9.30
2016,04,01,03,47,9.30
2016,04,01,03,48,9.30
2016,04,01,03,49,9.30
2016,04,01,03,50,9.20
2016,04,01,03,51,9.20
2016,04,01,03,52,9.20
2016,04,01,03,53,9.20
2016,04,01,03,54,9.20
2016,04,01,03,55,9.20
2016,04,01,03,56,9.20
2016,04,01,03,57,9.20
2016,04,01,03,58,9.20
2016,04,01,03,59,9.20
2016,04,01,04,00,9.20
2016,04,01,04,01,9.20
2016,04,01,04,02,9.20
2016,04,01,04,03,9.20
2016,04,01,04,04,9.20
2016,04,01,04,05,9.20
2016,04,01,04,06,9.20
2016,04,01,04,07,9.20
2016,04,01,04,08,9.20
2016,04,01,04,09,9.20
2016,04,01,04,10,9.20
2016,04,01,04,26,9.20
2016,04,01,04,27,9.20
2016,04,01,04,28,9.20
2016,04,01,04,29,9.10
2016,04,01,04,30,9.10
2016,04,01,04,31,9.10
2016,04,01,04,32,9.10
2016,04,01,04,33,9.10
2016,04,01,04,34,9.10
2016,04,01,04,35,9.10
2016,04,01,04,36,9.10
2016,04,01,04,37,9.10
2016,04,01,04,38,9.10
2016,04,01,04,39,9.10
2016,04,01,04,40,9.10
2016,04,01,04,41,9.10
2016,04,01,04,42,9.10
2016,04,01,04,43,9.10
2016,04,01,04,44,9.10
2016,04,01,04,45,9.10
2016,04,01,04,46,9.10
2016,04,01,04,47,9.10
2016,04,01,04,48,9.20
2016,04,01,04,49,9.20
2016,04,01,04,50,9.20
2016,04,01,04,51,9.20
2016,04,01,04,52,9.20
2016,04,01,04,53,9.20
2016,04,01,04,54,9.20
2016,04,01,04,55,9.20
2016,04,01,04,56,9.20
2016,04,01,04,57,9.20
2016,04,01,04,58,9.20
2016,04,01,04,59,9.20
2016,04,01,05,00,9.20
2016,04,01,05,01,9.20
2016,04,01,05,02,9.20
2016,04,01,05,03,9.20
2016,04,01,05,04,9.20
2016,04,01,05,05,9.10
2016,04,01,05,06,9.10
2016,04,01,05,07,9.10
2016,04,01,05,08,9.10
2016,04,01,05,09,9.10
2016,04,01,05,10,9.10
2016,04,01,05,11,9.10
2016,04,01,05,12,9.10
2016,04,01,05,13,9.10
2016,04,01,05,14,9.10
2016,04,01,05,15,9.10
2016,04,01,05,16,9.10
2016,04,01,05,17,9.00
2016,04,01,05,18,9.00
2016,04,01,05,19,9.00
2016,04,01,05,20,9.00
2016,04,01,05,21,9.00
2016,04,01,05,22,9.00
2016,04,01,05,23,9.00
2016,04,01,05,24,9.00
2016,04,01,05,25,9.00
2016,04,01,05,26,9.00
2016,04,01,05,27,9.00
2016,04,01,05,28,9.00
2016,04,01,05,29,9.00
2016,04,01,05,30,9.00
2016,04,01,05,31,9.00
2016,04,01,05,32,9.00
2016,04,01,05,33,9.00
2016,04,01,05,34,9.00
2016,04,01,05,35,9.00
2016,04,01,05,36,9.00
2016,04,01,05,37,9.00
2016,04,01,05,38,9.00
2016,04,01,05,39,9.00
2016,04,01,05,40,9.00
2016,04,01,05,41,9.00
2016,04,01,05,42,9.00
2016,04,01,05,43,9.00
2016,04,01,05,44,8.90
2016,04,01,05,45,8.90
2016,04,01,05,46,8.90
2016,04,01,05,47,8.90
2016,04,01,05,48,8.90
2016,04,01,05,49,8.90
2016,04,01,05,50,8.90
2016,04,01,05,51,8.90
2016,04,01,05,52,8.90
2016,04,01,05,53,8.90
2016,04,01,05,54,8.90
2016,04,01,05,55,8.90
2016,04,01,05,56,8.90
2016,04,01,05,57,8.90
2016,04,01,05,58,8.80
2016,04,01,05,59,8.80
2016,04,01,06,00,8.80
2016,04,01,06,01,8.80
2016,04,01,06,02,8.80
2016,04,01,06,03,8.80
2016,04,01,06,04,8.80
2016,04,01,06,05,8.80
2016,04,01,06,06,8.80
2016,04,01,06,07,8.80
2016,04,01,06,08,8.80
2016,04,01,06,09,8.80
2016,04,01,06,10,8.80
2016,04,01,06,11,8.80
2016,04,01,06,12,8.80
2016,04,01,06,13,8.80
2016,04,01,06,14,8.80
2016,04,01,06,15,8.70
2016,04,01,06,16,8.70
2016,04,01,06,17,8.70
2016,04,01,06,18,8.70
2016,04,01,06,19,8.70
2016,04,01,06,20,8.80
2016,04,01,06,21,8.80
2016,04,01,06,22,8.70
2016,04,01,06,23,8.80
2016,04,01,06,24,8.80
2016,04,01,06,25,8.80
2016,04,01,06,26,8.80
2016,04,01,06,27,8.80
2016,04,01,06,28,8.80
2016,04,01,06,29,8.80
2016,04,01,06,30,8.80
2016,04,01,06,31,8.80
2016,04,01,06,32,8.80
2016,04,01,06,33,8.80
2016,04,01,06,34,8.80
2016,04,01,06,35,8.80
2016,04,01,06,36,8.80
2016,04,01,06,37,8.70
2016,04,01,06,38,8.70
2016,04,01,06,39,8.70
2016,04,01,06,40,8.80
2016,04,01,06,41,8.80
2016,04,01,06,42,8.80
2016,04,01,06,43,8.80
2016,04,01,06,44,8.80
2016,04,01,06,45,8.80
2016,04,01,06,46,8.80
2016,04,01,06,47,8.70
2016,04,01,06,48,8.70
2016,04,01,06,49,8.70
2016,04,01,06,50,8.70
2016,04,01,06,51,8.70
2016,04,01,06,52,8.70
2016,04,01,06,53,8.70
2016,04,01,06,54,8.70
2016,04,01,06,55,8.70
2016,04,01,06,56,8.70
2016,04,01,06,57,8.70
2016,04,01,06,58,8.70
2016,04,01,06,59,8.70
2016,04,01,07,00,8.70
2016,04,01,07,01,8.70
2016,04,01,07,02,8.70
2016,04,01,07,03,8.70
2016,04,01,07,04,8.70
2016,04,01,07,05,8.70
2016,04,01,07,06,8.70
2016,04,01,07,07,8.70
2016,04,01,07,08,8.70
2016,04,01,07,09,8.70
2016,04,01,07,10,8.70
2016,04,01,07,11,8.70
2016,04,01,07,12,8.70
2016,04,01,07,13,8.70
2016,04,01,07,14,8.80
2016,04,01,07,15,8.80
2016,04,01,07,16,8.80
2016,04,01,07,17,8.80
2016,04,01,07,18,8.80
2016,04,01,07,19,8.80
2016,04,01,07,20,8.80
2016,04,01,07,21,8.80
2016,04,01,07,22,8.80
2016,04,01,07,23,8.80
2016,04,01,07,24,8.80
2016,04,01,07,25,8.80
2016,04,01,07,26,8.80
2016,04,01,07,27,8.80
2016,04,01,07,28,8.80
2016,04,01,07,29,8.80
2016,04,01,07,30,8.80
2016,04,01,07,31,8.80
2016,04,01,07,32,8.80
2016,04,01,07,33,8.80
2016,04,01,07,34,8.80
2016,04,01,07,35,8.80
2016,04,01,07,36,8.80
2016,04,01,07,37,8.80
2016,04,01,07,38,8.80
2016,04,01,07,39,8.90
2016,04,01,07,40,8.90
2016,04,01,07,41,8.90
2016,04,01,07,42,8.90
2016,04,01,07,43,8.90
2016,04,01,07,44,8.90
2016,04,01,07,45,8.90
2016,04,01,07,46,8.90
2016,04,01,07,47,8.90
2016,04,01,07,48,8.90
2016,04,01,07,49,8.90
2016,04,01,07,50,8.90
2016,04,01,07,51,8.90
2016,04,01,07,52,8.90
2016,04,01,07,53,8.90
2016,04,01,07,54,8.90
2016,04,01,07,55,8.90
2016,04,01,07,56,8.90
2016,04,01,07,57,8.90
2016,04,01,07,58,8.90
2016,04,01,07,59,8.90
2016,04,01,08,00,8.90
2016,04,01,08,01,8.90
2016,04,01,08,02,8.90
2016,04,01,08,03,8.90
2016,04,01,08,04,8.90
2016,04,01,08,05,8.90
2016,04,01,08,06,8.90
2016,04,01,08,07,8.90
2016,04,01,08,08,8.90
2016,04,01,08,09,8.90
2016,04,01,08,10,8.90
2016,04,01,08,11,8.90
2016,04,01,08,12,8.90
2016,04,01,08,13,8.90
2016,04,01,08,14,8.90
2016,04,01,08,15,8.80
2016,04,01,08,16,8.90
2016,04,01,08,17,8.90
2016,04,01,08,18,8.80
2016,04,01,08,19,8.80
2016,04,01,08,20,8.80
2016,04,01,08,21,8.80
2016,04,01,08,22,8.80
2016,04,01,08,23,8.80
2016,04,01,08,24,8.80
2016,04,01,08,25,8.70
2016,04,01,08,26,8.70
2016,04,01,08,27,8.80
2016,04,01,08,28,8.80
2016,04,01,08,29,8.80
2016,04,01,08,30,8.80
2016,04,01,08,31,8.80
2016,04,01,08,32,8.80
2016,04,01,08,33,8.80
2016,04,01,08,34,8.80
2016,04,01,08,35,8.80
2016,04,01,08,36,8.80
2016,04,01,08,37,8.80
2016,04,01,08,38,8.80
2016,04,01,08,39,8.80
2016,04,01,08,40,8.80
2016,04,01,08,41,8.80
2016,04,01,08,42,8.80
2016,04,01,08,43,8.80
2016,04,01,08,44,8.80
2016,04,01,08,45,8.80
2016,04,01,08,46,8.80
2016,04,01,08,47,8.80
2016,04,01,08,48,8.80
2016,04,01,08,49,8.90
2016,04,01,08,50,8.90
2016,04,01,08,51,8.80
2016,04,01,08,52,8.80
2016,04,01,08,53,8.80
2016,04,01,08,54,8.80
2016,04,01,08,55,8.80
2016,04,01,08,56,8.80
2016,04,01,08,57,8.80
2016,04,01,08,58,8.80
2016,04,01,08,59,8.80
2016,04,01,09,00,8.80
2016,04,01,09,01,8.80
2016,04,01,09,02,8.90
2016,04,01,09,03,8.90
2016,04,01,09,04,8.90
2016,04,01,09,05,8.90
2016,04,01,09,06,8.90
2016,04,01,09,07,8.90
2016,04,01,09,08,8.90
2016,04,01,09,09,8.90
2016,04,01,09,10,8.90
2016,04,01,09,11,8.90
2016,04,01,09,12,8.90
2016,04,01,09,13,8.90
2016,04,01,09,14,8.90
2016,04,01,09,15,8.90
2016,04,01,09,16,8.90
2016,04,01,09,17,8.90
2016,04,01,09,18,8.90
2016,04,01,09,19,8.90
2016,04,01,09,20,8.90
2016,04,01,09,21,9.00
2016,04,01,09,22,9.00
2016,04,01,09,23,9.00
2016,04,01,09,24,9.00
2016,04,01,09,25,9.00
2016,04,01,09,26,9.00
2016,04,01,09,27,9.00
2016,04,01,09,28,9.00
2016,04,01,09,29,9.00
2016,04,01,09,30,9.00
2016,04,01,09,31,9.00
2016,04,01,09,32,9.00
2016,04,01,09,33,9.00
2016,04,01,09,34,9.00
2016,04,01,09,35,9.10
2016,04,01,09,36,9.10
2016,04,01,09,37,9.10
2016,04,01,09,38,9.10
2016,04,01,09,39,9.10
2016,04,01,09,40,9.10
2016,04,01,09,41,9.10
2016,04,01,09,42,9.10
2016,04,01,09,43,9.10
2016,04,01,09,44,9.10
2016,04,01,09,45,9.10
2016,04,01,09,46,9.10
2016,04,01,09,47,9.10
2016,04,01,09,48,9.10
2016,04,01,09,49,9.20
2016,04,01,09,50,9.20
2016,04,01,09,51,9.20
2016,04,01,09,52,9.20
2016,04,01,09,53,9.20
2016,04,01,09,54,9.20
2016,04,01,09,55,9.20
2016,04,01,09,56,9.20
2016,04,01,09,57,9.20
2016,04,01,09,58,9.20
2016,04,01,09,59,9.20
2016,04,01,10,00,9.20
2016,04,01,10,01,9.20
2016,04,01,10,02,9.20
2016,04,01,10,03,9.20
2016,04,01,10,04,9.30
2016,04,01,10,05,9.30
2016,04,01,10,06,9.30
2016,04,01,10,07,9.30
2016,04,01,10,08,9.30
2016,04,01,10,09,9.30
2016,04,01,10,10,9.30
2016,04,01,10,11,9.30
2016,04,01,10,12,9.30
2016,04,01,10,13,9.30
2016,04,01,10,14,9.30
2016,04,01,10,15,9.30
2016,04,01,10,16,9.40
2016,04,01,10,17,9.40
2016,04,01,10,18,9.40
2016,04,01,10,19,9.40
2016,04,01,10,20,9.40
2016,04,01,10,21,9.40
2016,04,01,10,22,9.40
2016,04,01,10,23,9.50
2016,04,01,10,24,9.50
2016,04,01,10,25,9.50
2016,04,01,10,26,9.50
2016,04,01,10,27,9.50
2016,04,01,10,28,9.60
2016,04,01,10,29,9.60
2016,04,01,10,30,9.60
2016,04,01,10,31,9.60
2016,04,01,10,32,9.60
2016,04,01,10,33,9.60
2016,04,01,10,34,9.60
2016,04,01,10,35,9.60
2016,04,01,10,36,9.60
2016,04,01,10,37,9.60
2016,04,01,10,38,9.60
2016,04,01,10,39,9.60
2016,04,01,10,40,9.60
2016,04,01,10,41,9.60
2016,04,01,10,42,9.50
2016,04,01,10,43,9.50
2016,04,01,10,44,9.50
2016,04,01,10,45,9.40
2016,04,01,10,46,9.40
2016,04,01,10,47,9.40
2016,04,01,10,48,9.40
2016,04,01,10,49,9.40
2016,04,01,10,50,9.40
2016,04,01,10,51,9.40
2016,04,01,10,52,9.40
2016,04,01,10,53,9.40
2016,04,01,10,54,9.40
2016,04,01,10,55,9.40
2016,04,01,10,56,9.40
2016,04,01,10,57,9.40
2016,04,01,10,58,9.40
2016,04,01,10,59,9.30
2016,04,01,11,00,9.40
2016,04,01,11,01,9.40
2016,04,01,11,02,9.40
2016,04,01,11,03,9.40
2016,04,01,11,04,9.40
2016,04,01,11,05,9.40
2016,04,01,11,06,9.40
2016,04,01,11,07,9.40
2016,04,01,11,08,9.40
2016,04,01,11,09,9.50
2016,04,01,11,10,9.50
2016,04,01,11,11,9.50
2016,04,01,11,12,9.50
2016,04,01,11,13,9.50
2016,04,01,11,14,9.50
2016,04,01,11,15,9.50
2016,04,01,11,16,9.50
2016,04,01,11,17,9.50
2016,04,01,11,18,9.50
2016,04,01,11,19,9.60
2016,04,01,11,20,9.60
2016,04,01,11,21,9.60
2016,04,01,11,22,9.60
2016,04,01,11,23,9.60
2016,04,01,11,24,9.60
2016,04,01,11,25,9.60
2016,04,01,11,26,9.60
2016,04,01,11,27,9.60
2016,04,01,11,28,9.60
2016,04,01,11,29,9.60
2016,04,01,11,30,9.60
2016,04,01,11,31,9.60
2016,04,01,11,32,9.60
2016,04,01,11,33,9.60
2016,04,01,11,34,9.60
2016,04,01,11,35,9.60
2016,04,01,11,36,9.60
2016,04,01,11,37,9.60
2016,04,01,11,38,9.60
2016,04,01,11,39,9.60
2016,04,01,11,40,9.50
2016,04,01,11,41,9.60
2016,04,01,11,42,9.60
2016,04,01,11,43,9.60
2016,04,01,11,44,9.60
2016,04,01,11,45,9.60
2016,04,01,11,46,9.60
2016,04,01,11,47,9.60
2016,04,01,11,48,9.60
2016,04,01,11,49,9.50
2016,04,01,11,50,9.50
2016,04,01,11,51,9.50
2016,04,01,11,52,9.60
2016,04,01,11,53,9.60
2016,04,01,11,54,9.60
2016,04,01,11,55,9.60
2016,04,01,11,56,9.60
2016,04,01,11,57,9.60
2016,04,01,11,58,9.50
2016,04,01,11,59,9.50
2016,04,01,12,00,9.50
2016,04,01,12,01,9.50
2016,04,01,12,02,9.50
2016,04,01,12,03,9.50
2016,04,01,12,04,9.50
2016,04,01,12,05,9.50
2016,04,01,12,06,9.50
2016,04,01,12,07,9.50
2016,04,01,12,08,9.50
2016,04,01,12,09,9.50
2016,04,01,12,10,9.50
2016,04,01,12,11,9.50
2016,04,01,12,12,9.50
2016,04,01,12,13,9.50
2016,04,01,12,14,9.50
2016,04,01,12,15,9.50
2016,04,01,12,16,9.50
2016,04,01,12,17,9.50
2016,04,01,12,18,9.60
2016,04,01,12,19,9.60
2016,04,01,12,20,9.60
2016,04,01,12,21,9.60
2016,04,01,12,22,9.60
2016,04,01,12,23,9.60
2016,04,01,12,24,9.60
2016,04,01,12,25,9.50
2016,04,01,12,26,9.50
2016,04,01,12,27,9.50
2016,04,01,12,28,9.50
2016,04,01,12,29,9.50
2016,04,01,12,30,9.60
2016,04,01,12,31,9.60
2016,04,01,12,32,9.60
2016,04,01,12,33,9.60
2016,04,01,12,34,9.60
2016,04,01,12,35,9.60
2016,04,01,12,36,9.60
2016,04,01,12,37,9.60
2016,04,01,12,38,9.60
2016,04,01,12,39,9.70
2016,04,01,12,40,9.70
2016,04,01,12,41,9.70
2016,04,01,12,42,9.70
2016,04,01,12,43,9.70
2016,04,01,12,44,9.70
2016,04,01,12,45,9.70
2016,04,01,12,46,9.80
2016,04,01,12,47,9.80
2016,04,01,12,48,9.80
2016,04,01,12,49,9.80
2016,04,01,12,50,9.80
2016,04,01,12,51,9.80
2016,04,01,12,52,9.80
2016,04,01,12,53,9.80
2016,04,01,12,54,9.80
2016,04,01,12,55,9.80
2016,04,01,12,56,9.80
2016,04,01,12,57,9.80
2016,04,01,12,58,9.80
2016,04,01,12,59,9.70
2016,04,01,13,00,9.70
2016,04,01,13,01,9.70
2016,04,01,13,02,9.70
2016,04,01,13,03,9.70
2016,04,01,13,04,9.70
2016,04,01,13,05,9.70
2016,04,01,13,06,9.70
2016,04,01,13,07,9.70
2016,04,01,13,08,9.80
2016,04,01,13,09,9.80
2016,04,01,13,10,9.80
2016,04,01,13,11,9.80
2016,04,01,13,12,9.80
2016,04,01,13,13,9.80
2016,04,01,13,14,9.80
2016,04,01,13,15,9.80
2016,04,01,13,16,9.80
2016,04,01,13,17,9.90
2016,04,01,13,18,9.90
2016,04,01,13,19,9.90
2016,04,01,13,20,9.90
2016,04,01,13,21,9.90
2016,04,01,13,22,9.90
2016,04,01,13,23,9.90
2016,04,01,13,24,9.90
2016,04,01,13,25,9.90
2016,04,01,13,26,9.90
2016,04,01,13,27,9.90
2016,04,01,13,28,10.00
2016,04,01,13,29,10.00
2016,04,01,13,30,10.00
2016,04,01,13,31,10.10
2016,04,01,13,32,10.10
2016,04,01,13,33,10.10
2016,04,01,13,34,10.10
2016,04,01,13,35,10.10
2016,04,01,13,36,10.10
2016,04,01,13,37,10.10
2016,04,01,13,38,10.10
2016,04,01,13,39,10.10
2016,04,01,13,40,10.10
2016,04,01,13,41,10.10
2016,04,01,13,42,10.00
2016,04,01,13,43,10.00
2016,04,01,13,44,10.00
2016,04,01,13,45,9.90
2016,04,01,13,46,9.90
2016,04,01,13,47,9.90
2016,04,01,13,48,9.90
2016,04,01,13,49,9.90
2016,04,01,13,50,9.90
2016,04,01,13,51,9.90
2016,04,01,13,52,9.90
2016,04,01,13,53,9.90
2016,04,01,13,54,10.00
2016,04,01,13,55,10.00
2016,04,01,13,56,10.00
2016,04,01,13,57,10.10
2016,04,01,13,58,10.10
2016,04,01,13,59,10.10
2016,04,01,14,00,10.20
2016,04,01,14,01,10.20
2016,04,01,14,02,10.20
2016,04,01,14,03,10.20
2016,04,01,14,04,10.20
2016,04,01,14,05,10.20
2016,04,01,14,06,10.20
2016,04,01,14,07,10.20
2016,04,01,14,08,10.20
2016,04,01,14,09,10.20
2016,04,01,14,10,10.20
2016,04,01,14,11,10.20
2016,04,01,14,12,10.20
2016,04,01,14,13,10.20
2016,04,01,14,14,10.20
2016,04,01,14,15,10.20
2016,04,01,14,16,10.20
2016,04,01,14,17,10.20
2016,04,01,14,18,10.30
2016,04,01,14,19,10.30
2016,04,01,14,20,10.30
2016,04,01,14,21,10.30
2016,04,01,14,22,10.20
2016,04,01,14,23,10.20
2016,04,01,14,24,10.20
2016,04,01,14,25,10.20
2016,04,01,14,26,10.20
2016,04,01,14,27,10.20
2016,04,01,14,28,10.20
2016,04,01,14,29,10.20
2016,04,01,14,30,10.20
2016,04,01,14,31,10.10
2016,04,01,14,32,10.10
2016,04,01,14,33,10.10
2016,04,01,14,34,10.10
2016,04,01,14,35,10.10
2016,04,01,14,36,10.10
2016,04,01,14,37,10.10
2016,04,01,14,38,10.10
2016,04,01,14,39,10.10
2016,04,01,14,40,10.10
2016,04,01,14,41,10.10
2016,04,01,14,42,10.10
2016,04,01,14,43,10.10
2016,04,01,14,44,10.20
2016,04,01,14,45,10.20
2016,04,01,14,46,10.20
2016,04,01,14,47,10.20
2016,04,01,14,48,10.20
2016,04,01,14,49,10.20
2016,04,01,14,50,10.20
2016,04,01,14,51,10.20
2016,04,01,14,52,10.20
2016,04,01,14,53,10.20
2016,04,01,14,54,10.20
2016,04,01,14,55,10.20
2016,04,01,14,56,10.20
2016,04,01,14,57,10.20
2016,04,01,14,58,10.20
2016,04,01,14,59,10.20
2016,04,01,15,00,10.20
2016,04,01,15,01,10.20
2016,04,01,15,02,10.20
2016,04,01,15,03,10.20
2016,04,01,15,04,10.20
2016,04,01,15,05,10.20
2016,04,01,15,06,10.20
2016,04,01,15,07,10.10
2016,04,01,15,08,10.10
2016,04,01,15,09,10.10
2016,04,01,15,10,10.10
2016,04,01,15,11,10.10
2016,04,01,15,12,10.20
2016,04,01,15,13,10.20
2016,04,01,15,14,10.20
2016,04,01,15,15,10.10
2016,04,01,15,16,10.10
2016,04,01,15,17,10.10
2016,04,01,15,18,10.10
2016,04,01,15,19,10.10
2016,04,01,15,20,10.00
2016,04,01,15,21,10.00
2016,04,01,15,22,10.00
2016,04,01,15,23,10.00
2016,04,01,15,24,10.00
2016,04,01,15,25,9.90
2016,04,01,15,26,9.90
2016,04,01,15,27,9.90
2016,04,01,15,28,9.90
2016,04,01,15,29,9.90
2016,04,01,15,30,9.90
2016,04,01,15,31,9.90
2016,04,01,15,32,9.90
2016,04,01,15,33,9.90
2016,04,01,15,34,10.00
2016,04,01,15,35,10.00
2016,04,01,15,36,10.00
2016,04,01,15,37,10.00
2016,04,01,15,38,9.90
2016,04,01,15,39,9.90
2016,04,01,15,40,9.90
2016,04,01,15,41,9.90
2016,04,01,15,42,9.90
2016,04,01,15,43,9.90
2016,04,01,15,44,9.90
2016,04,01,15,45,9.90
2016,04,01,15,46,9.90
2016,04,01,15,47,9.80
2016,04,01,15,48,9.90
2016,04,01,15,49,9.90
2016,04,01,15,50,9.90
2016,04,01,15,51,9.90
2016,04,01,15,52,9.90
2016,04,01,15,53,9.90
2016,04,01,15,54,9.90
2016,04,01,15,55,9.90
2016,04,01,15,56,9.90
2016,04,01,15,57,9.90
2016,04,01,15,58,9.90
2016,04,01,15,59,9.90
2016,04,01,16,00,9.90
2016,04,01,16,01,9.90
2016,04,01,16,02,9.90
2016,04,01,16,03,9.90
2016,04,01,16,04,9.90
2016,04,01,16,05,9.90
2016,04,01,16,06,9.90
2016,04,01,16,07,9.90
2016,04,01,16,08,9.90
2016,04,01,16,09,9.80
2016,04,01,16,10,9.90
2016,04,01,16,11,9.80
2016,04,01,16,12,9.80
2016,04,01,16,13,9.80
2016,04,01,16,14,9.80
2016,04,01,16,15,9.80
2016,04,01,16,16,9.80
2016,04,01,16,17,9.80
2016,04,01,16,18,9.80
2016,04,01,16,19,9.80
2016,04,01,16,20,9.80
2016,04,01,16,21,9.80
2016,04,01,16,22,9.80
2016,04,01,16,23,9.80
2016,04,01,16,24,9.80
2016,04,01,16,25,9.80
2016,04,01,16,26,9.80
2016,04,01,16,27,9.80
2016,04,01,16,28,9.80
2016,04,01,16,29,9.80
2016,04,01,16,30,9.90
2016,04,01,16,31,9.90
2016,04,01,16,32,9.90
2016,04,01,16,33,9.90
2016,04,01,16,34,9.80
2016,04,01,16,35,9.80
2016,04,01,16,36,9.90
2016,04,01,16,37,9.90
2016,04,01,16,38,9.90
2016,04,01,16,39,9.90
2016,04,01,16,40,9.90
2016,04,01,16,41,9.90
2016,04,01,16,42,9.90
2016,04,01,16,43,9.90
2016,04,01,16,44,9.90
2016,04,01,16,45,9.90
2016,04,01,16,46,9.90
2016,04,01,16,47,9.90
2016,04,01,16,48,9.90
2016,04,01,16,49,9.90
2016,04,01,16,50,9.90
2016,04,01,16,51,9.90
2016,04,01,16,52,10.00
2016,04,01,16,53,10.00
2016,04,01,16,54,10.00
2016,04,01,16,55,10.00
2016,04,01,16,56,10.00
2016,04,01,16,57,10.00
2016,04,01,16,58,10.00
2016,04,01,16,59,10.10
2016,04,01,17,00,10.10
2016,04,01,17,01,10.10
2016,04,01,17,02,10.10
2016,04,01,17,03,10.10
2016,04,01,17,04,10.10
2016,04,01,17,05,10.10
2016,04,01,17,06,10.10
2016,04,01,17,07,10.10
2016,04,01,17,08,10.10
2016,04,01,17,09,10.10
2016,04,01,17,10,10.10
2016,04,01,17,11,10.10
2016,04,01,17,12,10.10
2016,04,01,17,13,10.10
2016,04,01,17,14,10.20
2016,04,01,17,15,10.10
2016,04,01,17,16,10.20
2016,04,01,17,17,10.20
2016,04,01,17,18,10.20
2016,04,01,17,19,10.20
2016,04,01,17,20,10.20
2016,04,01,17,21,10.20
2016,04,01,17,22,10.30
2016,04,01,17,23,10.30
2016,04,01,17,24,10.30
2016,04,01,17,25,10.30
2016,04,01,17,26,10.30
2016,04,01,17,27,10.30
2016,04,01,17,28,10.30
2016,04,01,17,29,10.30
2016,04,01,17,30,10.30
2016,04,01,17,31,10.40
2016,04,01,17,32,10.40
2016,04,01,17,33,10.40
2016,04,01,17,34,10.50
2016,04,01,17,35,10.50
2016,04,01,17,36,10.50
2016,04,01,17,37,10.50
2016,04,01,17,38,10.50
2016,04,01,17,39,10.60
2016,04,01,17,40,10.60
2016,04,01,17,41,10.70
2016,04,01,17,42,10.70
2016,04,01,17,43,10.70
2016,04,01,17,44,10.70
2016,04,01,17,45,10.80
2016,04,01,17,46,10.80
2016,04,01,17,47,10.80
2016,04,01,17,48,10.70
2016,04,01,17,49,10.70
2016,04,01,17,50,10.60
2016,04,01,17,51,10.60
2016,04,01,17,52,10.60
2016,04,01,17,53,10.60
2016,04,01,17,54,10.60
2016,04,01,17,55,10.60
2016,04,01,17,56,10.60
2016,04,01,17,57,10.60
2016,04,01,17,58,10.60
2016,04,01,17,59,10.60
2016,04,01,18,00,10.60
2016,04,01,18,01,10.60
2016,04,01,18,02,10.60
2016,04,01,18,03,10.60
2016,04,01,18,04,10.70
2016,04,01,18,05,10.70